Location: Berkeley
(37.8716°N, 122.2727°W)
Time: 04:59:07
(UTC-08:00)

Amateur Radio Satellites - All Passes

Search period start: 18 December 2017 04:29
Search period end: 19 December 2017 04:29
Location: Berkeley, 37.8716°N, 122.2727°W

Satellite Date Start Highest point End Downlink Frequencies (MHz)
Time Altitude Azimuth
BEESAT 2 18 Dec 04:31:49 04:35:32 35° 54° (NE) 04:39:11 435.950
STARS 18 Dec 04:35:45 04:39:28 27° 69° (ENE) 04:43:10 437.465
AO-85 18 Dec 05:05:39 05:09:44 27° 51° (NE) 05:14:02 145.980
XW-2D 18 Dec 05:06:22 05:07:19 11° 91° (E) 05:08:17 145.860 - 145.880
DOVE 4 18 Dec 05:15:14 05:19:37 78° 283° (WNW) 05:23:48 437.250
SRMSAT 18 Dec 05:18:48 05:20:28 11° 171° (S) 05:22:07 437.500
BEESAT 3 18 Dec 05:20:38 05:23:01 16° 250° (WSW) 05:25:24 437.485
XW-2B 18 Dec 05:21:02 05:23:30 16° 93° (E) 05:25:56 145.730 - 145.750
XW-2F 18 Dec 05:29:10 05:31:58 19° 94° (E) 05:34:45 145.980 - 146.000
NO-84 18 Dec 05:34:11 05:36:59 43° 319° (NW) 05:39:59 435.350 FM
KKS-1 18 Dec 05:41:08 05:44:30 21° 265° (W) 05:47:53 437.445
XW-2C 18 Dec 05:47:46 05:51:21 36° 98° (E) 05:54:54 145.795 - 145.815
ITAMSAT 1 18 Dec 05:49:45 05:50:24 10° 301° (WNW) 05:51:04 435.822/435.867
CUTE-I 18 Dec 06:01:13 06:06:14 41° 99° (E) 06:11:12 437.470
FO-29 18 Dec 06:07:43 06:12:48 19° 59° (ENE) 06:17:50 435.910
BEESAT 2 18 Dec 06:10:14 06:12:57 18° 250° (WSW) 06:15:37 435.950
STARS 18 Dec 06:12:10 06:15:43 24° 264° (W) 06:19:17 437.465
AO-7 18 Dec 06:14:15 06:18:29 15° 311° (NW) 06:22:43 .
CUTE 1.7 + AOD 2 18 Dec 06:15:25 06:18:30 19° 94° (E) 06:21:33 437.475
STRAND 1 18 Dec 06:16:09 06:20:54 40° 70° (ENE) 06:25:38 437.568
O/OREOS (USA 219) 18 Dec 06:20:15 06:21:48 12° 98° (E) 06:23:22 437.305
NUDT-PHONESAT 18 Dec 06:24:12 06:27:57 73° 101° (E) 06:31:40 437.300
HO-68 18 Dec 06:27:35 06:33:59 34° 97° (E) 06:40:19 435.675
LilacSat-2 18 Dec 06:29:16 06:33:04 56° 285° (WNW) 06:36:52 437.200
KAITUO 1B 18 Dec 06:35:21 06:39:09 74° 283° (WNW) 06:42:54 145.475/437.950
XW-2D 18 Dec 06:38:01 06:41:42 45° 286° (WNW) 06:45:22 145.860 - 145.880
AO-85 18 Dec 06:45:40 06:50:15 39° 245° (WSW) 06:55:05 145.980
XW-2B 18 Dec 06:54:19 06:57:42 30° 288° (WNW) 07:01:03 145.730 - 145.750
XW-2F 18 Dec 07:02:50 07:06:01 25° 289° (WNW) 07:09:10 145.980 - 146.000
SRMSAT 18 Dec 07:06:06 07:08:45 13° 182° (S) 07:11:25 437.500
SEEDS 18 Dec 07:19:00 07:23:13 63° 101° (E) 07:27:23 437.485
XW-2C 18 Dec 07:23:04 07:25:10 14° 293° (WNW) 07:27:16 145.795 - 145.815
AAUSAT CUBESAT 2 18 Dec 07:25:32 07:29:11 29° 96° (E) 07:32:47 437.432
XW-2A 18 Dec 07:28:20 07:31:21 28° 97° (E) 07:34:20 145.665 - 145.685
UWE-3 18 Dec 07:35:43 07:40:01 52° 100° (E) 07:44:25 435.000/436.395/437.385
CUTE-I 18 Dec 07:41:51 07:46:00 24° 294° (WNW) 07:50:07 437.470
CUBEBUG 2 18 Dec 07:44:50 07:49:07 66° 285° (WNW) 07:53:33 437.445
FO-29 18 Dec 07:48:58 07:56:46 90° 88° (E) 08:04:39 435.910
CUTE 1.7 + AOD 2 18 Dec 07:50:32 07:54:21 32° 289° (WNW) 07:58:09 437.475
ZACube-1 18 Dec 07:51:27 07:55:38 40° 98° (E) 07:59:52 437.345
O/OREOS (USA 219) 18 Dec 07:56:06 08:00:37 59° 293° (WNW) 08:05:09 437.305
STRAND 1 18 Dec 07:56:16 08:00:10 22° 266° (W) 08:04:05 437.568
Oscar 11 18 Dec 08:04:06 08:07:58 30° 96° (E) 08:11:48 .
HO-68 18 Dec 08:15:05 08:21:43 43° 294° (WNW) 08:28:19 435.675
AO-73 18 Dec 08:22:35 08:27:01 81° 102° (ESE) 08:31:31 145.935
TIGRISAT 18 Dec 08:28:28 08:31:58 25° 70° (ENE) 08:35:26 435.000
UNISAT 6 18 Dec 08:32:37 08:36:23 31° 71° (ENE) 08:40:08 437.425
SEEDS 18 Dec 08:57:25 08:58:18 11° 296° (WNW) 08:59:11 437.485
AAUSAT CUBESAT 2 18 Dec 09:01:21 09:04:24 20° 291° (WNW) 09:07:26 437.432
XW-2A 18 Dec 09:01:56 09:03:45 14° 292° (WNW) 09:05:33 145.665 - 145.685
ISS 18 Dec 09:08:50 09:11:32 24° 132° (SE) 09:14:14 437.550
UWE-3 18 Dec 09:13:52 09:16:02 14° 294° (WNW) 09:18:13 435.000/436.395/437.385
DELFI C3 18 Dec 09:22:32 09:26:17 43° 99° (E) 09:30:01 145.870
ZACube-1 18 Dec 09:28:40 09:31:35 17° 292° (WNW) 09:34:31 437.345
PRISM 18 Dec 09:29:11 09:33:00 37° 72° (ENE) 09:36:51 437.425
FO-29 18 Dec 09:37:53 09:42:32 17° 272° (W) 09:47:14 435.910
Oscar 11 18 Dec 09:40:34 09:43:54 22° 292° (WNW) 09:47:12 .
nSIGHT-1 18 Dec 09:47:06 09:50:18 88° 324° (NW) 09:53:31 .
TIGRISAT 18 Dec 10:05:05 10:08:34 24° 264° (W) 10:12:02 435.000
UNISAT 6 18 Dec 10:09:59 10:13:06 20° 265° (W) 10:16:14 437.425
AIST 2D 18 Dec 10:12:30 10:15:45 36° 74° (ENE) 10:19:01 435.315
Max Valier Satellite 18 Dec 10:13:34 10:17:14 57° 285° (WNW) 10:20:54 145.860
POLYITAN 1 18 Dec 10:19:16 10:21:46 16° 66° (ENE) 10:24:15 437.675
EO-88 18 Dec 10:31:29 10:35:03 49° 285° (WNW) 10:38:35 145.990 - 145.960
DUCHIFAT 1 18 Dec 10:42:36 10:45:46 21° 69° (ENE) 10:48:57 145.980
QB50P2 18 Dec 10:43:53 10:47:39 33° 71° (ENE) 10:51:24 145.880/145.840
ISS 18 Dec 10:44:53 10:47:53 32° 327° (NNW) 10:50:54 437.550
LO-87 18 Dec 10:48:33 10:51:30 24° 96° (E) 10:54:28 145.935 - 145.965
ESTCUBE 1 18 Dec 10:49:58 10:53:29 22° 95° (E) 10:56:59 437.505/2401.250
DELFI C3 18 Dec 10:58:52 11:00:36 13° 294° (WNW) 11:02:20 145.870
PRISM 18 Dec 11:05:51 11:08:23 16° 266° (W) 11:10:55 437.425
NANOSAT C BR1 18 Dec 11:10:32 11:14:36 53° 74° (ENE) 11:18:40 145.865
nSIGHT-1 18 Dec 11:25:00 11:26:54 15° 338° (NNW) 11:28:48 .
EO-79 18 Dec 11:28:42 11:32:53 79° 258° (WSW) 11:37:05 145.935-145.965
AIST 2D 18 Dec 11:48:05 11:49:02 11° 268° (W) 11:50:00 435.315
POLYITAN 1 18 Dec 11:53:16 11:57:11 39° 261° (W) 12:01:07 437.675
RS-15 18 Dec 11:56:15 12:03:53 19° 98° (E) 12:11:29 29.354- 29.394
Gurwin Techsat 1B 18 Dec 12:00:39 12:04:22 20° 64° (ENE) 12:08:04 435.225
VELOX 1 18 Dec 12:04:35 12:07:42 19° 94° (E) 12:10:47 145.980
NO-84 18 Dec 12:07:13 12:10:48 43° 41° (NE) 12:14:36 435.350 FM
SPROUT 18 Dec 12:10:55 12:14:53 38° 98° (E) 12:18:52 437.525
DUCHIFAT 1 18 Dec 12:17:42 12:21:15 27° 263° (W) 12:24:50 145.980
QB50P2 18 Dec 12:20:37 12:23:29 18° 266° (W) 12:26:21 145.880/145.840
Oscar 19 18 Dec 12:22:08 12:26:55 41° 71° (ENE) 12:31:45 437.125/150
LO-87 18 Dec 12:22:21 12:24:42 17° 291° (WNW) 12:27:03 145.935 - 145.965
ESTCUBE 1 18 Dec 12:26:16 12:30:17 32° 290° (WNW) 12:34:16 437.505/2401.250
AO-91 18 Dec 12:34:10 12:38:48 50° 75° (ENE) 12:42:59 145.960
YUBILEINY 18 Dec 12:38:59 12:46:13 27° 70° (ENE) 12:53:22 435.215
BUGSAT 1 18 Dec 12:40:17 12:44:17 69° 258° (WSW) 12:48:18 437.445
DX 1 18 Dec 12:48:28 12:49:18 10° 91° (E) 12:50:08 434.975-435.025
NANOSAT C BR1 18 Dec 12:49:30 12:50:35 11° 269° (W) 12:51:39 145.865
AO-7 18 Dec 13:24:48 13:31:39 30° 58° (ENE) 13:38:31 .
50 SAT 18 Dec 13:38:24 13:41:24 41° 99° (E) 13:44:22 437.505
Gurwin Techsat 1B 18 Dec 13:38:44 13:43:52 51° 260° (W) 13:49:04 435.225
VELOX 1 18 Dec 13:40:13 13:44:13 34° 289° (WNW) 13:48:10 145.980
NO-84 18 Dec 13:44:59 13:47:53 20° 234° (SW) 13:50:54 435.350 FM
ITAMSAT 1 18 Dec 13:46:17 13:49:02 15° 62° (ENE) 13:51:46 435.822/435.867
SPROUT 18 Dec 13:47:46 13:50:26 16° 293° (WNW) 13:53:07 437.525
UKube-1 18 Dec 13:56:26 14:00:30 40° 99° (E) 14:04:32 .
RS-15 18 Dec 14:02:12 14:14:30 83° 117° (ESE) 14:26:47 29.354- 29.394
Oscar 19 18 Dec 14:02:30 14:06:22 21° 266° (W) 14:10:16 437.125/150
SO-50 18 Dec 14:06:07 14:10:29 59° 117° (ESE) 14:14:55 436.795
AO-91 18 Dec 14:12:52 14:15:20 14° 266° (W) 14:17:42 145.960
DX 1 18 Dec 14:21:33 14:25:50 59° 286° (WNW) 14:30:04 434.975-435.025
ITUPSAT 1 18 Dec 14:34:44 14:37:28 15° 93° (E) 14:40:13 437.325
YUBILEINY 18 Dec 14:34:55 14:43:33 61° 269° (W) 14:52:05 435.215
MOZHAYETS 4 18 Dec 14:39:31 14:43:28 27° 96° (E) 14:47:24
nSIGHT-1 18 Dec 14:40:32 14:41:45 12° 18° (NNE) 14:42:57 .
M-CUBED/EXP-1 PRIME 18 Dec 14:43:46 14:48:09 77° 72° (ENE) 14:52:46 437.505
AO-7 18 Dec 15:15:41 15:23:50 61° 256° (WSW) 15:32:06 .
ITAMSAT 1 18 Dec 15:22:42 15:27:53 68° 258° (WSW) 15:33:05 435.822/435.867
UKube-1 18 Dec 15:33:28 15:36:10 17° 294° (WNW) 15:38:51 .
ISS 18 Dec 15:37:57 15:40:31 20° 27° (NNE) 15:43:04 437.550
BEESAT 18 Dec 15:39:19 15:44:06 77° 102° (ESE) 15:48:52 436.000
SO-50 18 Dec 15:48:27 15:51:18 16° 315° (NW) 15:54:12 436.795
ITUPSAT 1 18 Dec 16:10:55 16:15:32 51° 288° (WNW) 16:20:09 437.325
CUBESAT XI-V 18 Dec 16:14:18 16:19:00 68° 101° (E) 16:23:40 437.345
nSIGHT-1 18 Dec 16:15:23 16:18:33 52° 36° (NE) 16:21:41 .
MOZHAYETS 4 18 Dec 16:16:38 16:20:30 27° 291° (WNW) 16:24:22
DOVE 4 18 Dec 16:17:21 16:22:38 83° 75° (ENE) 16:27:42 437.250
RS-15 18 Dec 16:17:41 16:28:27 34° 322° (NW) 16:39:07 29.354- 29.394
XW-2C 18 Dec 16:28:22 16:30:27 14° 67° (ENE) 16:32:34 145.795 - 145.815
O/OREOS (USA 219) 18 Dec 16:29:40 16:32:45 18° 58° (ENE) 16:35:49 437.305
HO-68 18 Dec 16:55:31 17:00:46 22° 59° (ENE) 17:06:00 435.675
NUDT-PHONESAT 18 Dec 17:01:33 17:04:31 23° 71° (ENE) 17:07:31 437.300
PCSat 18 Dec 17:03:24 17:08:21 38° 110° (ESE) 17:13:20 145.827
CUTE 1.7 + AOD 2 18 Dec 17:07:56 17:09:21 11° 64° (ENE) 17:10:47 437.475
LilacSat-2 18 Dec 17:08:49 17:12:31 50° 75° (ENE) 17:16:15 437.200
KAITUO 1B 18 Dec 17:13:08 17:16:34 35° 73° (ENE) 17:20:01 145.475/437.950
ISS 18 Dec 17:13:59 17:17:10 49° 224° (SW) 17:20:21 437.550
XW-2D 18 Dec 17:16:43 17:20:26 60° 76° (ENE) 17:24:13 145.860 - 145.880
BEESAT 18 Dec 17:19:54 17:21:11 11° 299° (WNW) 17:22:28 436.000
CUTE-I 18 Dec 17:21:04 17:26:18 57° 73° (ENE) 17:31:33 437.470
KKS-1 18 Dec 17:32:18 17:36:45 83° 104° (ESE) 17:41:09 437.445
XW-2B 18 Dec 17:32:43 17:36:30 86° 258° (WSW) 17:40:21 145.730 - 145.750
XW-2F 18 Dec 17:40:38 17:44:23 72° 259° (W) 17:48:12 145.980 - 146.000
nSIGHT-1 18 Dec 17:52:46 17:54:25 13° 232° (SW) 17:56:04 .
CUBESAT XI-V 18 Dec 17:53:56 17:55:45 12° 297° (WNW) 17:57:33 437.345
DOVE 4 18 Dec 18:00:09 18:00:44 10° 271° (W) 18:01:18 437.250
XW-2C 18 Dec 18:00:48 18:04:17 35° 262° (W) 18:07:49 145.795 - 145.815
STARS 18 Dec 18:02:00 18:06:21 67° 102° (ESE) 18:10:40 437.465
O/OREOS (USA 219) 18 Dec 18:08:07 18:12:20 40° 255° (WSW) 18:16:30 437.305
SEEDS 18 Dec 18:08:39 18:12:27 33° 72° (ENE) 18:16:16 437.485
AAUSAT CUBESAT 2 18 Dec 18:14:32 18:17:08 16° 67° (ENE) 18:19:44 437.432
STRAND 1 18 Dec 18:29:38 18:32:33 15° 92° (E) 18:35:28 437.568
UWE-3 18 Dec 18:31:14 18:34:53 31° 72° (ENE) 18:38:34 435.000/436.395/437.385
NUDT-PHONESAT 18 Dec 18:35:34 18:38:17 19° 266° (W) 18:41:01 437.300
RS-15 18 Dec 18:39:09 18:46:27 17° 356° (N) 18:53:37 29.354- 29.394
CUTE 1.7 + AOD 2 18 Dec 18:40:27 18:44:38 59° 260° (W) 18:48:52 437.475
HO-68 18 Dec 18:40:39 18:47:49 69° 257° (WSW) 18:55:00 435.675
CUBEBUG 2 18 Dec 18:40:56 18:45:06 80° 78° (ENE) 18:49:15 437.445
ZACube-1 18 Dec 18:46:00 18:49:18 23° 69° (ENE) 18:52:38 437.345
PCSat 18 Dec 18:47:07 18:51:47 29° 307° (NW) 18:56:29 145.827
KAITUO 1B 18 Dec 18:48:48 18:50:38 13° 268° (W) 18:52:29 145.475/437.950
Oscar 11 18 Dec 18:57:40 19:00:43 19° 68° (ENE) 19:03:48 .
CUTE-I 18 Dec 19:03:22 19:06:40 16° 268° (W) 19:09:59 437.470
FO-29 18 Dec 19:05:24 19:07:43 12° 85° (E) 19:09:56 435.910
BEESAT 3 18 Dec 19:06:21 19:10:18 67° 302° (WNW) 19:14:18 437.485
AO-73 18 Dec 19:16:14 19:20:10 46° 73° (ENE) 19:24:09 145.935
FALCONSAT 3 18 Dec 19:23:52 19:26:19 17° 154° (SSE) 19:28:48 435.103
XW-2A 18 Dec 19:29:19 19:32:35 54° 261° (W) 19:35:54 145.665 - 145.685
STARS 18 Dec 19:41:08 19:42:05 11° 297° (WNW) 19:43:02 437.465
SEEDS 18 Dec 19:45:14 19:48:10 18° 266° (W) 19:51:08 437.485
AAUSAT CUBESAT 2 18 Dec 19:48:21 19:52:14 38° 262° (W) 19:56:09 437.432
BEESAT 2 18 Dec 19:57:48 20:01:47 70° 302° (WNW) 20:05:50 435.950
DELFI C3 18 Dec 20:06:19 20:09:14 20° 69° (ENE) 20:12:10 145.870
STRAND 1 18 Dec 20:07:04 20:12:02 56° 288° (WNW) 20:17:01 437.568
UWE-3 18 Dec 20:08:34 20:11:24 18° 266° (W) 20:14:15 435.000/436.395/437.385
ZACube-1 18 Dec 20:22:06 20:25:29 24° 265° (W) 20:28:52 437.345
Oscar 11 18 Dec 20:32:41 20:36:35 34° 263° (W) 20:40:32 .
FO-29 18 Dec 20:47:11 20:53:49 85° 286° (WNW) 20:59:37 435.910
Max Valier Satellite 18 Dec 20:50:09 20:53:36 42° 74° (ENE) 20:57:05 145.860
AO-73 18 Dec 20:54:59 20:56:39 12° 269° (W) 20:58:19 145.935
RS-15 18 Dec 20:55:12 21:04:57 28° 32° (NNE) 21:14:16 29.354- 29.394
AO-85 18 Dec 20:58:29 21:02:21 70° 302° (WNW) 21:06:26 145.980
FALCONSAT 3 18 Dec 21:01:25 21:04:58 45° 168° (SSE) 21:08:30 435.103
EO-88 18 Dec 21:06:42 21:10:11 46° 75° (ENE) 21:13:43 145.990 - 145.960
DELFI C3 18 Dec 21:40:21 21:43:47 27° 264° (W) 21:47:13 145.870
ESTCUBE 1 18 Dec 21:48:17 21:51:12 17° 66° (ENE) 21:54:08 437.505/2401.250
TIGRISAT 18 Dec 21:56:46 22:01:10 74° 103° (ESE) 22:05:39 435.000
UNISAT 6 18 Dec 22:01:24 22:05:50 88° 279° (W) 22:10:20 437.425
Max Valier Satellite 18 Dec 22:27:06 22:27:37 10° 269° (W) 22:28:08 145.860
FO-29 18 Dec 22:34:51 22:37:37 13° 305° (NW) 22:40:17 435.910
SO-50 18 Dec 22:38:53 22:43:08 33° 52° (NE) 22:47:26 436.795
FALCONSAT 3 18 Dec 22:40:14 22:43:52 58° 184° (S) 22:47:30 435.103
PRISM 18 Dec 22:46:44 22:50:51 79° 104° (ESE) 22:54:53 437.425
LO-87 18 Dec 22:54:58 22:58:26 56° 259° (W) 23:01:55 145.935 - 145.965
VELOX 1 18 Dec 23:00:47 23:03:13 15° 65° (ENE) 23:05:39 145.980
SPROUT 18 Dec 23:02:38 23:06:01 24° 69° (ENE) 23:09:25 437.525
RS-15 18 Dec 23:07:39 23:19:30 82° 58° (ENE) 23:30:39 29.354- 29.394
AIST 2D 18 Dec 23:11:33 23:15:03 58° 101° (E) 23:18:31 435.315
EO-79 18 Dec 23:15:48 23:18:46 18° 94° (E) 23:21:43 145.935-145.965
ESTCUBE 1 18 Dec 23:23:21 23:27:38 42° 261° (W) 23:31:57 437.505/2401.250
POLYITAN 1 18 Dec 23:39:25 23:43:18 34° 98° (E) 23:47:11 437.675
DUCHIFAT 1 19 Dec 00:02:24 00:06:29 48° 100° (E) 00:10:33 145.980
QB50P2 19 Dec 00:05:18 00:09:33 82° 102° (ESE) 00:13:48 145.880/145.840
FALCONSAT 3 19 Dec 00:19:23 00:22:41 31° 199° (SSW) 00:25:58 435.103
SO-50 19 Dec 00:19:33 00:23:28 26° 248° (WSW) 00:27:24 436.795
BUGSAT 1 19 Dec 00:24:18 00:27:07 18° 94° (E) 00:29:58 437.445
NANOSAT C BR1 19 Dec 00:31:43 00:35:53 62° 285° (WNW) 00:40:02 145.865
VELOX 1 19 Dec 00:34:54 00:39:13 49° 260° (W) 00:43:32 145.980
Oscar 19 19 Dec 00:36:30 00:39:45 17° 92° (E) 00:43:00 437.125/150
SPROUT 19 Dec 00:38:13 00:41:46 26° 264° (W) 00:45:19 437.525
UKube-1 19 Dec 00:49:09 00:52:49 28° 69° (ENE) 00:56:28 .
EO-79 19 Dec 00:50:47 00:54:33 33° 288° (WNW) 00:58:20 145.935-145.965
DX 1 19 Dec 01:14:41 01:19:04 88° 269° (W) 01:23:28 434.975-435.025
POLYITAN 1 19 Dec 01:15:54 01:18:48 18° 293° (WNW) 01:21:42 437.675
RS-15 19 Dec 01:22:04 01:30:22 24° 260° (W) 01:38:26 29.354- 29.394
50 SAT 19 Dec 01:33:50 01:36:46 36° 261° (W) 01:39:44 437.505
YUBILEINY 19 Dec 01:37:49 01:45:21 33° 85° (E) 01:52:54 435.215
DUCHIFAT 1 19 Dec 01:39:41 01:41:42 13° 295° (WNW) 01:43:42 145.980
MOZHAYETS 4 19 Dec 01:39:59 01:43:27 22° 68° (ENE) 01:46:55
ITUPSAT 1 19 Dec 01:40:08 01:42:53 16° 64° (ENE) 01:45:39 437.325
PCSat 19 Dec 01:53:08 01:57:25 23° 50° (NE) 02:01:40 145.827
Gurwin Techsat 1B 19 Dec 01:56:29 02:01:49 74° 103° (ESE) 02:07:06 435.225
BUGSAT 1 19 Dec 01:58:55 02:02:30 31° 289° (WNW) 02:06:06 437.445
AO-91 19 Dec 02:02:14 02:05:31 50° 286° (WNW) 02:08:49 145.960
Oscar 19 19 Dec 02:14:17 02:19:22 54° 287° (WNW) 02:24:24 437.125/150
JUGNU 19 Dec 02:20:12 02:22:08 12° 174° (S) 02:24:04 437.505
UKube-1 19 Dec 02:25:19 02:28:45 23° 264° (W) 02:32:13 .
BEESAT 19 Dec 02:43:38 02:48:21 73° 75° (ENE) 02:53:07 436.000
CUBESAT XI-V 19 Dec 03:15:26 03:19:57 53° 74° (ENE) 03:24:32 437.345
ITUPSAT 1 19 Dec 03:15:37 03:20:14 53° 260° (W) 03:24:54 437.325
MOZHAYETS 4 19 Dec 03:16:16 03:20:22 33° 263° (W) 03:24:30
AO-7 19 Dec 03:19:08 03:27:18 53° 102° (ESE) 03:35:23 .
BEESAT 3 19 Dec 03:24:36 03:28:14 36° 54° (NE) 03:31:49 437.485
YUBILEINY 19 Dec 03:33:15 03:41:44 50° 283° (WNW) 03:50:18 435.215
PCSat 19 Dec 03:35:51 03:41:04 50° 248° (WSW) 03:46:16 145.827
ITAMSAT 1 19 Dec 03:37:22 03:42:22 48° 100° (E) 03:47:21 435.822/435.867
Gurwin Techsat 1B 19 Dec 03:38:30 03:41:05 14° 299° (WNW) 03:43:39 435.225
M-CUBED/EXP-1 PRIME 19 Dec 03:58:18 04:02:41 75° 107° (ESE) 04:06:43 437.505
JUGNU 19 Dec 04:08:04 04:10:14 12° 184° (S) 04:12:25 437.505
BEESAT 2 19 Dec 04:16:59 04:20:44 36° 54° (NE) 04:24:25 435.950
DOVE 4 19 Dec 04:19:15 04:22:39 22° 94° (E) 04:25:56 437.250
BEESAT 19 Dec 04:26:23 04:26:35 10° 270° (W) 04:26:48 436.000
